Hourly Weather Roundup
Issued by NWS Central Illinois

Home | Current Version | Previous Version | Text Only | Print | Product List | Glossary On
Versions: 1 2 3 4 5 6 7 8 9 10 11 12 13 14 15 16 17 18 19 20 21 22 23 24 25 26 27 28 29 30 31 32 33 34 35 36 37 38 39 40 41 42 43 44 45 46 47 48 49 50
000
NZUS43 KILX 270810
HWRILX

Area Weather Roundup
National Weather Service Lincoln IL
300 AM CDT THU JUL 27 2017

NOTE:  "FAIR" indicates few or no clouds below 12,000 feet, with
       no sigificant weather and/or obstructions to visibility.


CITY           SKY/WX    TMP DP  RH WIND       PRES   REMARKS
Bloomington    CLOUDY    72  72 100 S10       29.93F
Champaign      CLOUDY    72  71  97 S7        29.94F
Danville       CLOUDY    70  70 100 CALM      29.91F
Decatur        CLOUDY    73  72  96 S8        29.93F
Effingham      RAIN      72  72 100 NE5       29.97F
Flora          LGT RAIN  74  73  95 E6        29.95S
Galesburg      MOCLDY    70  70 100 CALM      29.94R FOG
Jacksonville   CLOUDY    74  73  97 SE3       29.93F
Lacon          CLOUDY    71  71 100 CALM      29.91F
Lawrenceville  RAIN      74  32  21 W7        29.97R
Litchfield     CLOUDY    73  72  98 SE9       29.95F
$$


CITY           SKY/WX    TMP DP  RH WIND       PRES   REMARKS
Lincoln        CLOUDY    73  73 100 CALM      29.92F
Macomb         CLOUDY    73  73  98 CALM      29.95S
Mattoon        LGT RAIN  73  73 100 SW7       29.95F
Mt Carmel AP   RAIN      73  71  93 N6        29.97S
Olney-Noble AP TSTM      72  70  93 E6        29.97F
Paris AP       CLOUDY    72  72 100 CALM      29.96S
Peoria         CLOUDY    73  73 100 CALM      29.92S
Pontiac        CLOUDY    71  70  98 CALM      29.93S FOG
Rantoul        CLOUDY    74  73  99 CALM      29.93F
Robinson       HVY RAIN  72  71  97 W3        29.97F
Springfield    LGT RAIN  75  75 100 S3        29.93F FOG
Taylorville    LGT RAIN  73  73 100 SE3       29.95S
$$

...REGIONAL REPORTS...


CITY           SKY/WX    TMP DP  RH WIND       PRES   REMARKS
Chicago O`Hare CLOUDY    74  70  87 W5        29.89F
Kankakee       CLOUDY    72  70  94 CALM      29.92F
Moline         MOCLDY    74  70  87 NW3       29.91F
Mount Sterling CLOUDY    73  73  99 CALM      29.93S FOG
Mount Vernon   CLOUDY    77  76  96 NE9       29.95R
Pittsfield     CLOUDY    74  74  98 SE5       29.95S
Quincy         CLOUDY    75  74  96 E3        29.93F
Rockford       CLOUDY    73  70  90 CALM      29.93F
$$


CITY           SKY/WX    TMP DP  RH WIND       PRES   REMARKS
Burlington     CLOUDY    75  74  96 CALM      29.92F
Cedar Rapids   NOT AVBL
Des Moines     MOCLDY    72  69  90 N6        29.97S
Kirksville     CLOUDY    75  74  96 NE5       29.96R
Ottumwa        CLOUDY    72  71  97 N5        29.95S
St Louis       TSTM      78  73  84 N16       29.95R HX  81
$$


CITY           SKY/WX    TMP DP  RH WIND       PRES   REMARKS
Terre Haute    MOCLDY    75  72  90 SW5       29.96S
Evansville     CLOUDY    78  73  84 CALM      29.95F HX  81
Indianapolis   CLOUDY    75  72  90 SW9       29.95S
Lafayette      CLOUDY    73  70  90 CALM      29.93F
Madison        PTCLDY    68  68 100 N6        29.94S FOG
Milwaukee      CLOUDY    72  70  93 NE6       29.93F
$$





USA.gov is the U.S. government's official web portal to all federal, state and local government web resources and services.